Tracking 33198 objects as of 13-Feb-2026
HD Live streaming from Space Station
objects crossing your sky now

NNSS 19 (TRANSIT 19)

Track NNSS 19 (TRANSIT 19) now!
10-day predictions
NNSS 19 (TRANSIT 19) is classified as:


NORAD ID: 4507
Int'l Code: 1970-067A
Perigee: 945.2 km
Apogee: 1,203.8 km
Inclination: 90.0 °
Period: 106.6 minutes
Semi major axis: 7445 km
RCS: 1.5637 m2 (large)
Launch date: August 27, 1970
Source: United States (US)
Launch site: AIR FORCE WESTERN TEST RANGE (AFWTR)
Your satellite tracking list
Your tracking list is empty




NASA's NSSDC Master Catalog

Two Line Element Set (TLE):
1  4507U 70067A   26044.49129979  .00000157  00000-0  20447-3 0  9995
2  4507  90.0030 234.5677 0173650 110.9813 251.0016 13.51331834730691
Source of the keplerian elements: AFSPC